Location: Ravensburg
(47.7866°N, 9.6124°E)
Time: 05:01:43
(UTC+01:00)

Oscar 11 - Visible Passes

Search period start: 11 March 2026 00:00
Search period end: 21 March 2026 00:00
Orbit: 590 x 602 km, 97.8° (Epoch: 10 March)

Date Brightness Start Highest point End Pass type
(mag) Time Alt. Az. Time Alt. Az. Time Alt. Az.
11 Mar 8.7 03:31:44 10° NNE 03:34:19 30° NE 03:34:19 30° NE visible
11 Mar 8.3 05:07:54 10° NNW 05:11:00 22° WNW 05:11:00 22° WNW visible
12 Mar 8.3 03:41:36 10° NNE 03:44:32 39° NE 03:44:32 39° NE visible
12 Mar 8.5 05:18:07 10° NNW 05:20:59 18° WNW 05:21:13 18° WNW visible
13 Mar 7.8 03:51:30 10° NNE 03:54:45 50° NE 03:54:45 50° NE visible
13 Mar 8.7 05:28:27 10° NNW 05:30:49 15° WNW 05:31:26 14° WNW visible
14 Mar 7.3 04:01:25 10° NNE 04:04:58 62° NNE 04:04:58 62° NNE visible
14 Mar 8.9 05:38:58 10° NW 05:40:38 12° WNW 05:41:38 11° WNW visible
15 Mar 10.1 02:37:58 10° ENE 02:38:29 11° ENE 02:38:29 11° ENE visible
15 Mar 7.0 04:11:22 10° N 04:15:10 69° NNW 04:15:10 69° NNW visible
16 Mar 9.8 02:47:06 10° NE 02:48:41 14° ENE 02:48:41 14° ENE visible
16 Mar 7.0 04:21:21 10° N 04:25:22 60° WNW 04:25:22 60° WNW visible
17 Mar 9.5 02:56:34 10° NE 02:58:53 18° E 02:58:53 18° E visible
17 Mar 7.2 04:31:21 10° N 04:35:23 47° WNW 04:35:34 47° W visible
18 Mar 9.2 03:06:10 10° NE 03:09:05 22° E 03:09:05 22° E visible
18 Mar 7.5 04:41:24 10° N 04:45:16 38° WNW 04:45:46 36° W visible
19 Mar 8.8 03:15:52 10° NE 03:19:16 28° E 03:19:16 28° E visible
19 Mar 7.8 04:51:28 10° N 04:55:08 30° WNW 04:55:57 28° W visible
20 Mar 8.3 03:25:38 10° NNE 03:29:28 35° E 03:29:28 35° E visible
20 Mar 8.1 05:01:33 10° N 05:04:59 25° WNW 05:06:09 22° W visible
